Date,TemperatureHighF,TemperatureAvgF,TemperatureLowF,DewpointHighF,DewpointAvgF,DewpointLowF,HumidityHigh,HumidityAvg,HumidityLow,PressureMaxIn,PressureMinIn,WindSpeedMaxMPH,WindSpeedAvgMPH,GustSpeedMaxMPH,PrecipitationSumIn
2013-7-1,81.6,64.3,0.0,79.5,60.8,0.0,100,80,73,29.92,29.80,3,0,6,0.33
2013-7-2,84.7,77.5,71.6,84.7,74.2,71.6,100,90,75,29.98,29.87,8,0,8,0.00
2013-7-3,89.5,81.8,78.5,81.4,75.3,70.4,89,81,61,30.02,29.94,8,0,8,0.24
2013-7-4,89.9,81.2,71.3,87.1,76.7,71.3,100,88,59,30.05,29.96,8,0,8,0.17
2013-7-5,89.5,78.9,70.6,86.7,74.0,70.6,100,86,57,30.04,29.94,12,0,12,0.01
2013-7-6,91.8,81.9,73.7,77.0,73.2,69.1,100,77,53,30.01,29.92,8,0,8,0.00
2013-7-7,91.8,80.9,72.3,77.7,72.9,69.5,100,79,49,30.02,29.92,4,0,7,0.00
2013-7-8,92.9,81.7,71.8,77.9,73.3,70.6,100,78,50,30.05,29.96,6,0,10,0.00
2013-7-9,93.2,80.5,69.3,78.6,70.9,65.9,100,76,45,30.05,29.95,6,0,6,0.00
2013-7-10,94.5,80.0,68.8,77.7,71.3,67.5,100,78,44,29.99,29.85,6,0,6,0.16
2013-7-11,95.6,80.4,71.8,77.6,72.8,67.9,100,81,42,29.92,29.80,14,0,14,0.03
2013-7-12,84.7,79.9,74.6,77.3,75.9,74.1,100,88,74,29.83,29.78,0,0,0,0.45
2013-7-13,90.1,78.3,71.3,79.6,73.9,71.3,100,88,56,29.89,29.80,6,0,6,0.12
2013-7-14,90.7,77.5,70.8,79.9,73.0,70.8,100,88,59,29.98,29.86,9,0,9,0.00
2013-7-15,87.2,76.0,69.8,77.9,72.3,69.8,100,89,61,30.01,29.96,6,0,7,0.50
2013-7-17,91.2,82.8,74.2,76.8,71.6,68.2,100,70,55,30.06,29.97,8,0,8,0.01
2013-7-18,87.8,79.2,70.9,76.4,71.2,59.4,100,78,57,30.01,29.93,6,0,6,0.02
2013-7-19,87.2,76.5,73.5,75.8,71.1,64.4,87,84,68,30.02,29.92,9,0,9,0.00
2013-7-20,91.4,77.2,73.2,78.9,71.8,68.0,100,84,56,29.99,29.89,7,0,7,0.78
2013-7-21,78.1,73.0,70.4,76.7,72.8,70.4,100,99,92,30.00,29.93,0,0,0,0.08
2013-7-22,92.5,78.7,73.3,79.2,74.6,67.1,100,88,53,30.00,29.94,3,0,3,0.12
2013-7-23,84.0,74.9,72.8,79.2,74.0,70.8,100,97,76,29.98,29.84,10,0,10,0.36
2013-7-24,86.7,78.3,73.9,79.0,75.1,71.4,100,90,70,29.87,29.76,6,0,10,0.12
2013-7-25,84.7,78.6,73.9,82.5,75.4,71.0,100,91,69,29.86,29.75,13,0,13,0.10
2013-7-26,93.4,80.1,73.2,79.8,74.8,67.0,100,86,52,29.89,29.82,10,0,10,0.84
2013-7-27,93.4,79.8,70.9,82.5,74.8,70.9,100,86,53,29.89,29.77,7,0,7,0.00
2013-7-28,89.7,77.1,70.8,79.6,73.1,70.0,100,89,60,29.95,29.82,1,0,7,0.00
2013-7-29,95.6,80.2,69.1,79.9,72.2,65.2,100,80,38,30.04,29.91,6,0,10,0.00
2013-7-30,95.1,81.7,71.5,80.2,73.8,69.4,100,80,45,30.06,29.95,3,0,3,0.00
2013-7-31,77.4,74.4,72.3,75.2,73.8,72.3,100,98,92,30.03,29.95,0,0,0,0.00